TimePST,TemperatureF,Dew PointF,Humidity,Sea Level PressureIn,VisibilityMPH,Wind Direction,Wind SpeedMPH,Gust SpeedMPH,PrecipitationIn,Events,Conditions,WindDirDegrees,DateUTC
12:53 AM,43.0,37.9,82,30.10,10.0,East,4.6,-,N/A,,Overcast,100,2013-02-18 08:53:00
1:53 AM,43.0,37.0,80,30.08,10.0,Calm,Calm,-,N/A,,Overcast,0,2013-02-18 09:53:00
2:53 AM,42.1,37.0,82,30.06,10.0,Calm,Calm,-,N/A,,Mostly Cloudy,0,2013-02-18 10:53:00
3:53 AM,42.8,35.6,76,30.04,10.0,Calm,Calm,-,N/A,,Mostly Cloudy,0,2013-02-18 11:53:00
4:00 AM,42.8,37.4,81,30.04,10.0,Calm,Calm,-,N/A,,Mostly Cloudy,0,2013-02-18 12:00:00
4:53 AM,41.0,36.0,82,30.02,10.0,Calm,Calm,-,N/A,,Mostly Cloudy,0,2013-02-18 12:53:00
5:53 AM,41.0,36.0,82,30.01,10.0,Calm,Calm,-,N/A,,Overcast,0,2013-02-18 13:53:00
6:53 AM,41.0,36.0,82,30.00,10.0,ESE,3.5,-,N/A,,Overcast,120,2013-02-18 14:53:00
7:53 AM,41.0,36.0,82,30.00,10.0,SE,6.9,-,N/A,,Overcast,130,2013-02-18 15:53:00
8:53 AM,42.1,37.0,82,29.99,10.0,SE,8.1,-,N/A,,Overcast,140,2013-02-18 16:53:00
9:53 AM,43.0,37.0,80,29.98,10.0,South,5.8,-,N/A,,Mostly Cloudy,170,2013-02-18 17:53:00
10:53 AM,45.0,36.0,71,29.97,10.0,SE,4.6,-,N/A,,Mostly Cloudy,140,2013-02-18 18:53:00
11:53 AM,45.0,35.1,68,29.95,10.0,Variable,4.6,-,N/A,,Overcast,0,2013-02-18 19:53:00
12:53 PM,46.0,34.0,63,29.93,10.0,South,4.6,-,N/A,,Overcast,170,2013-02-18 20:53:00
1:53 PM,46.9,34.0,61,29.91,10.0,South,6.9,-,N/A,,Overcast,180,2013-02-18 21:53:00
2:53 PM,46.0,35.1,66,29.90,10.0,SSW,8.1,-,0.00,Rain,Light Rain,200,2013-02-18 22:53:00
3:53 PM,46.0,36.0,68,29.88,10.0,SSE,8.1,-,0.00,,Overcast,160,2013-02-18 23:53:00
4:53 PM,46.9,33.1,59,29.85,10.0,South,8.1,-,N/A,,Overcast,170,2013-02-19 00:53:00
5:53 PM,46.9,33.1,59,29.83,10.0,South,5.8,-,N/A,,Overcast,170,2013-02-19 01:53:00
6:53 PM,46.0,33.1,61,29.82,10.0,South,3.5,-,0.00,,Overcast,190,2013-02-19 02:53:00
7:53 PM,44.1,34.0,68,29.81,10.0,SE,4.6,-,N/A,,Overcast,140,2013-02-19 03:53:00
8:53 PM,45.0,35.1,68,29.79,10.0,East,4.6,-,N/A,,Mostly Cloudy,80,2013-02-19 04:53:00
9:53 PM,43.0,33.1,68,29.78,10.0,Calm,Calm,-,N/A,,Mostly Cloudy,0,2013-02-19 05:53:00
10:53 PM,43.0,34.0,71,29.77,10.0,Calm,Calm,-,N/A,,Overcast,0,2013-02-19 06:53:00
11:53 PM,43.0,35.1,74,29.77,10.0,Calm,Calm,-,N/A,,Overcast,0,2013-02-19 07:53:00